Wind_Speed
127 129 131 132 135 133 131 130 133 124 125 122 128 125 126 123 123 124 121 120 117 115 114 113 112 112 108 106 104 102 101 98 98 97 95 96 96 96 97 96 95 96 96
138 140 141 141 142 135 135 135 133 132 130 129 125 127 127 133 127 126 126 125 124 121 121 121 120 120 118 116 112 112 112 109 108 106 106 104 103 103 104 104 103 103 102
151 149 152 151 140 136 133 134 134 134 131 130 127 129 128 128 129 129 128 128 129 134 129 127 127 126 125 124 121 119 120 120 119 116 114 114 114 112 112 111 110 111 109
140 140 137 134 129 129 129 130 131 132 132 132 131 129 127 128 128 130 127 127 128 128 130 137 132 130 130 131 129 128 128 128 127 124 126 123 121 119 117 117 117 116 115
124 128 127 127 130 133 134 133 130 128 128 130 129 128 126 125 127 127 127 128 125 122 122 121 127 134 134 132 132 134 136 134 132 130 126 127 125 126 126 124 122 122 121
117 118 121 124 126 128 131 132 133 134 134 132 130 129 126 123 124 124 124 125 120 121 120 121 126 128 126 121 122 129 128 128 132 130 117 122 120 128 133 133 131 127 126
111 111 111 115 121 125 129 132 134 134 133 135 134 131 126 124 124 123 125 123 124 121 119 124 123 126 131 126 123 118 120 123 125 121 118 110 108 115 121 126 131 129 128
100 103 106 110 115 118 121 126 130 131 130 130 131 131 129 124 123 123 123 121 118 117 115 114 115 115 119 119 121 123 122 121 122 121 123 115 113 111 114 117 121 122 119
96 98 102 104 106 110 114 121 123 124 127 128 127 128 128 126 129 129 128 126 125 120 119 120 116 114 116 119 120 121 120 118 118 119 120 116 114 111 113 113 110 115 117
94 93 96 101 104 105 107 110 115 120 123 126 126 125 123 120 125 127 129 125 123 123 124 121 118 116 119 115 118 115 109 110 116 118 117 115 110 108 113 113 114 114 117
91 92 94 96 98 100 103 106 108 112 113 114 117 119 123 122 121 123 124 122 119 122 122 126 123 122 117 120 119 118 111 115 113 114 113 115 111 110 111 114 115 115 116
85 86 88 90 92 94 96 98 99 102 106 110 113 112 113 115 118 121 122 122 120 116 118 122 125 127 124 120 117 114 114 115 107 108 110 113 112 112 112 110 114 115 115
89 89 89 89 90 90 91 93 94 96 96 98 102 105 109 112 114 117 120 121 120 118 116 119 124 123 123 121 119 120 119 119 112 113 112 119 120 118 113 110 111 110 109
89 90 90 89 90 89 88 89 90 93 94 96 98 97 98 100 106 112 116 121 123 117 116 118 121 121 120 120 118 117 114 114 114 114 112 114 114 113 114 114 113 112 112
84 84 83 82 80 79 81 83 83 84 84 86 89 91 94 95 100 104 106 110 118 123 117 115 116 116 117 118 119 119 118 114 113 113 113 114 111 108 108 114 114 111 112
79 80 78 76 75 76 76 78 79 79 78 78 80 80 84 85 90 95 101 106 108 113 109 109 110 112 113 117 117 118 117 113 112 110 112 112 112 110 108 107 110 113 114
72 73 72 71 71 71 69 68 69 73 71 71 71 72 75 78 80 84 92 98 102 106 101 103 103 107 108 112 114 117 115 113 111 112 112 114 112 111 109 111 109 110 108
66 66 66 64 66 66 64 63 62 64 66 61 63 65 67 70 72 75 82 88 92 96 94 97 98 103 103 105 109 112 110 108 110 112 113 109 109 109 109 108 109 111 108
62 60 59 58 57 59 60 59 59 58 59 60 58 60 62 62 64 69 75 80 83 85 89 89 91 97 97 98 102 106 106 105 107 110 109 107 107 107 105 106 107 108 107
57 54 53 54 53 52 52 54 55 55 54 53 54 56 59 60 61 63 67 71 75 79 79 80 85 92 90 92 100 102 101 101 102 103 101 102 103 106 105 107 106 105 107
54 51 50 49 49 49 49 49 50 52 52 50 49 53 55 55 58 61 63 66 69 71 72 76 82 85 85 88 90 92 94 97 99 99 97 95 100 104 106 105 106 107 108
52 50 48 47 47 45 45 45 46 48 49 49 48 48 51 52 53 56 60 62 63 65 70 73 76 76 77 80 83 85 87 90 92 93 95 95 95 98 101 104 104 104 102
50 48 48 46 43 43 44 42 43 44 45 46 47 47 47 48 50 52 54 58 60 62 66 70 73 73 72 72 74 78 81 83 86 88 89 92 94 95 99 100 101 100 101
48 46 44 44 44 41 41 43 43 43 43 44 45 46 46 47 48 49 51 53 56 59 63 66 68 69 67 69 73 76 78 80 82 83 84 86 89 91 95 95 93 94 97
43 43 43 44 44 43 41 40 41 42 42 42 43 45 46 46 46 48 49 51 52 55 59 62 65 66 68 70 72 73 75 77 78 79 80 83 85 87 90 89 90 92 93
40 41 42 42 42 42 42 41 39 39 40 41 41 42 43 45 46 46 48 50 52 54 56 58 62 64 66 67 69 71 72 74 74 75 78 79 81 84 87 89 89 88 89
Wind_Direction
277 278 276 275 276 274 272 271 269 268 263 263 256 257 260 258 257 259 261 262 261 261 263 263 261 262 262 261 261 262 262 261 263 263 261 262 262 263 264 267 269 270 272
276 273 273 275 273 272 270 269 267 266 265 263 262 260 262 261 260 261 258 256 257 258 258 260 261 261 262 262 261 261 260 260 260 261 263 263 264 265 266 266 268 269 271
272 271 272 272 269 269 268 268 268 267 265 262 262 262 263 260 261 262 260 259 256 254 254 255 257 259 260 262 263 262 262 263 260 261 261 262 262 263 265 267 268 268 269
266 267 267 265 265 265 265 265 265 265 265 263 263 263 266 261 258 258 259 259 258 257 256 254 254 256 257 259 260 262 263 263 263 263 263 263 263 264 265 267 268 270 272
262 262 262 262 263 264 264 264 263 262 263 265 265 265 264 262 259 257 257 257 257 257 256 256 256 256 257 259 258 258 261 263 264 264 265 267 266 266 266 267 269 270 272
264 263 262 261 260 261 262 262 261 262 263 262 262 264 264 263 262 259 255 254 255 255 254 254 255 254 258 261 262 262 261 262 264 263 263 265 266 265 265 266 268 270 272
266 265 263 262 261 260 260 261 261 261 262 262 263 263 261 261 261 259 259 257 258 255 255 254 255 255 255 258 260 261 263 265 264 264 263 266 266 265 266 268 268 270 271
267 266 264 263 261 260 260 260 260 261 262 262 262 263 263 262 260 259 259 258 258 258 257 254 254 255 255 254 254 256 260 262 265 265 264 264 266 269 267 265 266 268 269
269 267 265 263 261 261 261 261 260 260 261 262 263 263 264 263 262 259 258 260 260 260 258 258 258 259 260 257 258 257 257 261 262 263 262 264 264 263 262 263 264 264 266
270 268 267 265 264 262 260 259 259 260 259 260 261 262 263 264 263 262 261 261 260 259 260 260 260 260 258 259 258 262 263 262 261 261 264 264 264 261 260 263 263 264 265
274 272 270 267 266 265 263 261 259 259 260 259 259 258 259 260 260 261 261 261 259 258 258 259 260 259 259 258 257 258 259 259 259 260 262 263 263 262 263 262 264 264 264
277 274 272 270 268 267 266 265 263 260 259 259 259 259 259 259 259 259 259 260 261 259 259 259 258 258 257 257 258 258 258 259 258 259 259 262 263 262 263 262 263 263 264
277 276 273 272 270 269 267 265 265 263 262 261 259 258 257 257 257 258 259 259 258 259 258 257 257 258 259 260 259 260 258 260 261 260 261 261 261 261 261 262 263 264 265
277 277 276 274 272 270 269 267 265 263 262 260 259 258 256 255 256 256 256 258 260 258 256 256 257 258 258 259 260 259 258 259 260 260 259 259 262 263 263 263 262 264 265
279 277 275 274 274 273 271 269 266 264 263 261 260 259 257 255 253 254 254 254 255 259 257 256 256 256 257 258 259 259 259 260 258 259 259 262 262 262 263 262 263 263 263
279 278 278 277 277 274 271 271 269 267 266 262 260 259 258 255 254 253 254 253 252 254 257 257 258 257 256 257 258 258 260 260 259 259 260 261 262 262 262 263 263 263 262
280 280 280 280 278 277 275 273 272 270 267 265 263 259 257 255 253 252 251 252 253 254 254 254 254 256 255 255 257 259 259 260 259 260 260 261 262 262 262 262 263 265 266
282 281 280 280 279 279 278 275 272 270 271 267 265 262 258 255 252 250 250 251 252 253 254 253 251 251 252 252 254 257 259 258 258 258 259 260 261 262 262 263 263 264 265
284 284 282 281 278 278 277 276 274 271 268 268 265 262 261 257 254 249 247 248 249 251 251 251 251 251 250 251 252 254 256 257 257 258 259 260 260 261 262 263 263 263 265
283 283 282 281 280 277 275 275 274 272 270 267 264 262 259 256 254 251 248 247 247 248 250 249 248 249 249 248 249 251 254 255 256 259 260 261 261 262 262 263 264 266 267
284 283 282 282 281 279 277 275 273 272 271 267 263 260 259 257 255 252 249 247 246 247 247 247 247 247 247 247 249 252 253 254 256 258 260 259 258 260 262 263 263 265 267
284 285 285 285 284 281 278 276 272 270 269 268 266 261 259 256 254 252 250 249 247 246 246 246 247 248 248 247 247 249 251 253 255 256 257 258 258 258 259 261 264 265 266
285 286 286 284 281 282 280 277 274 270 268 267 265 263 259 257 255 251 249 248 247 245 245 246 247 247 246 246 247 247 249 250 252 253 254 255 257 257 259 260 262 264 265
285 286 286 286 287 284 282 280 277 273 269 267 265 262 258 257 254 253 251 247 247 247 246 246 248 249 249 246 245 245 246 247 248 251 253 254 255 256 258 260 263 265 266
287 287 288 289 288 286 284 282 280 277 273 269 265 264 261 256 254 253 252 251 248 247 247 247 247 247 247 247 248 248 249 249 249 251 253 254 256 258 259 262 263 264 265
285 286 286 286 287 288 287 285 281 279 277 273 270 266 264 262 257 253 252 251 250 249 248 248 248 248 248 248 249 250 251 252 252 252 252 254 255 256 257 259 261 263 265
Height
10458 10456 10454 10452 10451 10450 10451 10451 10452 10453 10458 10461 10465 10468 10472 10477 10481 10483 10485 10487 10490 10492 10496 10500 10502 10500 10504 10506 10510 10514 10517 10521 10526 10532 10530 10531 10534 10535 10535 10538 10540 10540 10539
10417 10415 10413 10410 10408 10407 10405 10408 10409 10409 10413 10418 10421 10429 10432 10438 10442 10446 10450 10454 10457 10460 10462 10466 10470 10470 10474 10477 10480 10483 10487 10490 10497 10502 10503 10505 10508 10509 10509 10511 10514 10514 10514
10370 10369 10367 10364 10363 10364 10363 10363 10365 10366 10368 10371 10378 10382 10389 10394 10401 10409 10412 10416 10421 10425 10428 10433 10435 10439 10445 10446 10449 10453 10454 10457 10462 10471 10475 10477 10479 10480 10481 10482 10484 10485 10484
10330 10323 10319 10318 10318 10318 10322 10323 10323 10322 10325 10329 10333 10337 10343 10349 10357 10364 10371 10376 10381 10386 10393 10398 10402 10406 10411 10414 10417 10421 10422 10423 10427 10438 10439 10445 10449 10451 10452 10451 10453 10456 10457
10284 10283 10281 10280 10279 10276 10277 10277 10280 10283 10286 10287 10292 10297 10302 10306 10313 10322 10328 10336 10343 10349 10356 10360 10366 10370 10376 10378 10383 10387 10389 10391 10396 10406 10408 10410 10417 10417 10418 10420 10423 10426 10428
10244 10241 10240 10239 10240 10238 10237 10238 10239 10240 10244 10251 10255 10257 10261 10268 10271 10278 10289 10295 10303 10311 10320 10325 10330 10336 10341 10345 10347 10349 10355 10356 10363 10371 10379 10382 10384 10386 10385 10389 10390 10396 10400
10207 10204 10203 10201 10200 10198 10199 10199 10201 10203 10207 10209 10212 10218 10227 10233 10234 10240 10245 10255 10263 10276 10283 10288 10295 10301 10307 10313 10317 10315 10319 10322 10329 10337 10348 10354 10350 10353 10354 10360 10361 10364 10367
10173 10170 10167 10164 10165 10163 10161 10163 10165 10165 10170 10176 10179 10180 10188 10198 10202 10205 10208 10217 10227 10238 10246 10252 10260 10267 10272 10276 10278 10284 10290 10293 10296 10302 10310 10318 10320 10322 10321 10327 10330 10332 10337
10136 10134 10128 10128 10132 10131 10131 10131 10131 10131 10136 10139 10142 10147 10150 10162 10164 10172 10174 10182 10193 10203 10209 10215 10225 10234 10237 10241 10244 10252 10259 10267 10266 10265 10273 10280 10287 10290 10290 10295 10302 10301 10305
10096 10100 10099 10094 10094 10094 10094 10096 10095 10095 10102 10105 10111 10114 10117 10126 10128 10130 10133 10142 10157 10168 10171 10178 10188 10198 10200 10205 10212 10216 10228 10236 10233 10234 10240 10244 10253 10258 10259 10266 10273 10277 10278
10064 10064 10061 10059 10057 10056 10058 10061 10064 10063 10065 10070 10074 10081 10082 10089 10097 10093 10094 10098 10119 10128 10137 10143 10153 10159 10166 10170 10180 10189 10198 10193 10200 10205 10211 10213 10221 10226 10234 10239 10243 10245 10246
10033 10031 10026 10024 10024 10024 10023 10024 10026 10030 10033 10036 10036 10044 10049 10052 10054 10059 10060 10063 10071 10086 10102 10107 10113 10118 10130 10138 10147 10159 10160 10160 10173 10178 10184 10186 10191 10197 10203 10211 10212 10212 10216
9997 9995 9993 9993 9991 9991 9992 9992 9991 9992 9998 10001 10003 10011 10016 10016 10021 10022 10022 10023 10031 10044 10062 10070 10071 10081 10091 10101 10113 10121 10125 10133 10146 10151 10158 10155 10159 10164 10170 10180 10181 10184 10188
9968 9963 9961 9960 9956 9955 9956 9956 9958 9958 9961 9966 9967 9973 9979 9983 9985 9987 9991 9991 9989 10003 10025 10030 10037 10043 10057 10067 10076 10088 10097 10105 10115 10117 10120 10124 10129 10137 10142 10146 10151 10153 10155
9935 9931 9929 9927 9927 9928 9925 9921 9922 9922 9927 9930 9933 9939 9944 9951 9950 9949 9955 9963 9965 9960 9981 9995 10006 10018 10028 10035 10041 10048 10060 10071 10084 10085 10087 10095 10101 10104 10109 10112 10117 10122 10125
9906 9902 9901 9900 9899 9895 9895 9891 9890 9893 9896 9900 9903 9910 9910 9916 9916 9920 9924 9928 9935 9932 9946 9964 9976 9987 9998 10001 10008 10015 10022 10036 10048 10053 10056 10062 10066 10071 10075 10080 10086 10089 10092
9884 9879 9876 9874 9869 9866 9866 9868 9866 9861 9866 9870 9874 9878 9881 9883 9888 9892 9892 9893 9899 9903 9923 9935 9950 9957 9966 9970 9975 9978 9988 10001 10012 10018 10023 10028 10036 10041 10048 10054 10056 10056 10062
9859 9857 9854 9852 9846 9843 9843 9842 9842 9841 9838 9845 9848 9847 9850 9854 9859 9863 9865 9867 9874 9880 9894 9903 9916 9921 9931 9940 9943 9945 9955 9967 9978 9984 9987 9996 10005 10011 10018 10023 10027 10027 10032
9838 9835 9832 9830 9828 9825 9822 9820 9819 9819 9819 9819 9824 9825 9823 9828 9832 9835 9834 9840 9848 9856 9861 9873 9884 9886 9899 9909 9913 9916 9925 9935 9942 9946 9955 9966 9976 9980 9986 9991 9996 9999 10002
9820 9818 9814 9810 9808 9806 9804 9801 9799 9797 9798 9799 9800 9801 9802 9804 9806 9810 9814 9820 9824 9828 9837 9848 9852 9855 9869 9879 9877 9885 9899 9908 9914 9919 9929 9938 9945 9947 9955 9958 9963 9966 9969
9802 9800 9797 9794 9791 9788 9786 9784 9782 9780 9779 9780 9782 9780 9780 9784 9787 9790 9794 9799 9804 9811 9818 9821 9822 9826 9838 9847 9856 9864 9875 9882 9888 9895 9902 9910 9915 9920 9924 9928 9933 9936 9937
9785 9782 9780 9778 9774 9771 9768 9767 9765 9763 9762 9762 9763 9763 9762 9765 9767 9770 9774 9779 9786 9792 9797 9798 9801 9808 9818 9826 9835 9843 9850 9858 9863 9870 9875 9881 9889 9892 9896 9899 9901 9904 9909
9768 9766 9763 9760 9758 9755 9752 9750 9749 9748 9746 9746 9745 9746 9747 9747 9749 9753 9756 9759 9764 9769 9772 9775 9780 9786 9796 9805 9814 9820 9827 9833 9837 9842 9849 9854 9858 9863 9866 9870 9873 9877 9878
9752 9750 9746 9743 9740 9739 9737 9734 9733 9732 9731 9730 9729 9729 9731 9732 9733 9736 9739 9742 9746 9749 9752 9756 9760 9767 9777 9781 9784 9790 9796 9802 9809 9814 9819 9824 9828 9833 9837 9841 9844 9847 9849
9738 9734 9731 9728 9726 9724 9722 9721 9719 9717 9716 9716 9714 9714 9715 9716 9718 9720 9722 9725 9729 9732 9735 9739 9743 9748 9752 9756 9761 9767 9773 9778 9784 9790 9795 9799 9803 9807 9810 9814 9817 9818 9819
9725 9721 9718 9715 9712 9709 9707 9706 9705 9704 9703 9702 9702 9701 9700 9701 9702 9704 9707 9709 9711 9714 9717 9720 9724 9728 9733 9739 9744 9748 9753 9758 9763 9768 9771 9776 9779 9782 9785 9786 9788 9791 9794